WX4SNO Weather Reports


time (UTC)temp
C
wind
direction
speed
KPH
gust
KPH
rain 1hr
cm
rain 24hr
cm
rain mn
cm
humidity
%
barometer
mb
20260510202503 22 59 0.0 0.0 0.00 0.00 0.00 49 1016.2
20260510202003 22 141 0.0 0.0 0.00 0.00 0.00 46 1016.2
20260510201503 23 101 0.0 0.0 0.00 0.00 0.00 44 1016.1
20260510201003 23 26 0.0 4.8 0.00 0.00 0.00 47 1016.1
20260510200502 23 301 1.6 4.8 0.00 0.00 0.00 46 1016.3
20260510200003 23 280 0.0 11.3 0.00 0.00 0.00 43 1016.3
20260510195503 23 18 0.0 11.3 0.00 0.00 0.00 46 1016.2
20260510195003 23 55 0.0 0.0 0.00 0.00 0.00 48 1016.3
20260510194503 23 15 0.0 0.0 0.00 0.00 0.00 45 1016.5
20260510194003 23 59 0.0 0.0 0.00 0.00 0.00 49 1016.3
20260510193523 22 74 0.0 0.0 0.00 0.00 0.00 49 1016.4
20260510193004 22 24 0.0 0.0 0.00 0.00 0.00 48 1016.5
20260510192503 22 15 0.0 0.0 0.00 0.00 0.00 46 1016.6
20260510191504 23 51 0.0 0.0 0.00 0.00 0.00 44 1016.5
20260510191002 23 348 0.0 0.0 0.00 0.00 0.00 43 1016.5
20260510190503 23 348 0.0 6.4 0.00 0.00 0.00 43 1016.6
20260510190003 23 355 0.0 6.4 0.00 0.00 0.00 45 1016.6
20260510185524 23 11 0.0 4.8 0.00 0.00 0.00 44 1016.6
20260510185024 23 5 0.0 4.8 0.00 0.00 0.00 44 1016.6
20260510184503 23 80 0.0 4.8 0.00 0.00 0.00 42 1016.6
20260510184003 23 340 0.0 0.0 0.00 0.00 0.00 45 1016.7
20260510183503 23 30 0.0 8.0 0.00 0.00 0.00 46 1016.8
20260510183003 23 43 0.0 8.0 0.00 0.00 0.00 44 1016.7
20260510182503 23 49 0.0 4.8 0.00 0.00 0.00 47 1016.8
20260510182003 23 52 0.0 4.8 0.00 0.00 0.00 44 1016.8
20260510181503 23 159 0.0 6.4 0.00 0.00 0.00 49 1016.8
20260510181024 23 75 0.0 6.4 0.00 0.00 0.00 48 1016.9
20260510180524 22 309 0.0 0.0 0.00 0.00 0.00 51 1017.0
20260510180003 22 51 0.0 0.0 0.00 0.00 0.00 50 1017.1
20260510175503 22 346 0.0 0.0 0.00 0.00 0.00 48 1017.1
20260510175003 22 340 0.0 4.8 0.00 0.00 0.00 47 1017.2
20260510174503 22 330 0.0 4.8 0.00 0.00 0.00 48 1017.2
20260510174002 21 5 0.0 0.0 0.00 0.00 0.00 53 1017.3
20260510173503 21 333 0.0 0.0 0.00 0.00 0.00 55 1017.3
20260510173002 21 332 0.0 0.0 0.00 0.00 0.00 54 1017.3
20260510172503 21 17 0.0 0.0 0.00 0.00 0.00 51 1017.4
20260510172004 21 17 0.0 0.0 0.00 0.00 0.00 52 1017.3
20260510171502 21 53 0.0 0.0 0.00 0.00 0.00 53 1017.5
20260510171003 21 335 0.0 1.6 0.00 0.00 0.00 57 1017.5
20260510170524 21 47 0.0 1.6 0.00 0.00 0.00 51 1017.5
20260510170004 21 60 0.0 1.6 0.00 0.00 0.00 57 1017.5
20260510165502 21 24 0.0 9.7 0.00 0.00 0.00 50 1017.5
20260510165024 22 25 0.0 9.7 0.00 0.00 0.00 52 1017.5
20260510164503 22 63 0.0 4.8 0.00 0.00 0.00 52 1017.4
20260510164003 22 179 0.0 1.6 0.00 0.00 0.00 53 1017.5
20260510163503 22 108 0.0 0.0 0.00 0.00 0.00 54 1017.5
20260510163003 22 355 0.0 0.0 0.00 0.00 0.00 56 1017.6
20260510162503 21 347 0.0 8.0 0.00 0.00 0.00 56 1017.7
20260510162002 21 147 0.0 8.0 0.00 0.00 0.00 54 1017.6
20260510161503 21 182 0.0 1.6 0.00 0.00 0.00 51 1017.6
20260510161003 21 9 0.0 0.0 0.00 0.00 0.00 54 1017.6
20260510160503 21 54 0.0 8.0 0.00 0.00 0.00 53 1017.6
20260510160024 21 329 0.0 8.0 0.00 0.00 0.00 56 1017.8
20260510155503 21 272 0.0 0.0 0.00 0.00 0.00 51 1017.7
20260510155003 21 336 0.0 1.6 0.00 0.00 0.00 53 1017.8
20260510154502 21 5 0.0 1.6 0.00 0.00 0.00 55 1017.8
20260510154004 21 5 0.0 1.6 0.00 0.00 0.00 54 1017.9
20260510153524 21 149 0.0 0.0 0.00 0.00 0.00 53 1017.9
20260510153003 21 52 0.0 0.0 0.00 0.00 0.00 55 1017.8
20260510152503 21 351 0.0 1.6 0.00 0.00 0.00 57 1017.8
20260510152002 21 40 0.0 3.2 0.00 0.00 0.00 54 1017.8
20260510151503 21 5 0.0 3.2 0.00 0.00 0.00 54 1017.9
20260510151003 21 55 0.0 3.2 0.00 0.00 0.00 55 1017.8
20260510150524 21 360 0.0 6.4 0.00 0.00 0.00 56 1017.8
20260510150002 21 36 0.0 6.4 0.00 0.00 0.00 55 1017.9
20260510145503 20 355 0.0 4.8 0.00 0.00 0.00 55 1017.9
20260510145006 20 305 0.0 4.8 0.00 0.00 0.00 55 1017.8
20260510144506 20 71 0.0 0.0 0.00 0.00 0.00 53 1017.9
20260510144003 20 46 0.0 3.2 0.00 0.00 0.00 56 1017.8
20260510143503 20 300 0.0 3.2 0.00 0.00 0.00 57 1017.8
20260510143004 20 32 0.0 4.8 0.00 0.00 0.00 57 1017.9
20260510142503 20 359 0.0 4.8 0.00 0.00 0.00 58 1017.8
20260510142002 20 144 0.0 3.2 0.00 0.00 0.00 56 1017.9
20260510141524 20 51 0.0 3.2 0.00 0.00 0.00 61 1018.0
20260510141003 19 5 0.0 1.6 0.00 0.00 0.00 57 1017.9
20260510140503 19 348 0.0 1.6 0.00 0.00 0.00 58 1018.0
20260510140003 19 5 0.0 0.0 0.00 0.00 0.00 58 1018.0
20260510135503 19 51 0.0 0.0 0.00 0.00 0.00 58 1017.9
20260510135003 18 313 0.0 0.0 0.00 0.00 0.00 61 1018.0
20260510134524 18 223 0.0 1.6 0.00 0.00 0.00 60 1018.1
20260510134003 18 43 0.0 1.6 0.00 0.00 0.00 59 1018.1
20260510133502 18 173 0.0 0.0 0.00 0.00 0.00 59 1018.0
20260510133003 18 330 0.0 0.0 0.00 0.00 0.00 59 1017.9
20260510132503 18 307 0.0 0.0 0.00 0.00 0.00 62 1018.0
20260510131502 17 49 0.0 4.8 0.00 0.00 0.00 63 1018.0
20260510131003 17 25 0.0 4.8 0.00 0.00 0.00 64 1017.9
20260510130503 17 34 0.0 0.0 0.00 0.00 0.00 65 1018.0
20260510130003 17 12 0.0 0.0 0.00 0.00 0.00 73 1018.0
20260510125503 16 329 0.0 0.0 0.00 0.00 0.00 72 1017.9
20260510125003 16 57 0.0 1.6 0.00 0.00 0.00 74 1017.8
20260510124503 16 64 0.0 1.6 0.00 0.00 0.00 74 1017.9
20260510124003 15 50 0.0 0.0 0.00 0.00 0.00 74 1017.8
20260510123545 15 42 0.0 0.0 0.00 0.00 0.00 76 1017.9
20260510123024 14 81 0.0 0.0 0.00 0.00 0.00 77 1017.6
20260510122524 14 105 0.0 0.0 0.00 0.00 0.00 77 1017.6
20260510122003 13 105 0.0 0.0 0.00 0.00 0.00 76 1017.5
20260510121503 14 139 0.0 0.0 0.00 0.00 0.00 75 1017.4
20260510121003 15 144 0.0 1.6 0.00 0.00 0.00 74 1017.4
20260510120502 15 144 0.0 1.6 0.00 0.00 0.00 74 1017.4
20260510120003 15 150 0.0 0.0 0.00 0.00 0.00 75 1017.4
20260510115503 14 150 0.0 0.0 0.00 0.00 0.00 74 1017.4
20260510115003 14 148 0.0 0.0 0.00 0.00 0.00 75 1017.4
20260510114503 13 150 0.0 0.0 0.00 0.00 0.00 77 1017.4
20260510114003 13 182 0.0 0.0 0.00 0.00 0.00 77 1017.3
20260510113504 12 182 0.0 0.0 0.00 0.00 0.00 78 1017.2
20260510113024 12 182 0.0 0.0 0.00 0.00 0.00 78 1017.1
20260510112503 12 182 0.0 0.0 0.00 0.00 0.00 78 1017.1
20260510112003 11 182 0.0 0.0 0.00 0.00 0.00 79 1016.9
20260510111502 11 182 0.0 0.0 0.00 0.00 0.00 78 1016.9
20260510111024 11 182 0.0 0.0 0.00 0.00 0.00 79 1016.9
20260510110503 11 182 0.0 0.0 0.00 0.00 0.00 79 1016.8
20260510110003 11 182 0.0 0.0 0.00 0.00 0.00 79 1016.7
20260510105503 11 182 0.0 0.0 0.00 0.00 0.00 79 1016.5
20260510105003 10 182 0.0 0.0 0.00 0.00 0.00 79 1016.4
20260510104503 10 182 0.0 0.0 0.00 0.00 0.00 79 1016.4
20260510104003 10 182 0.0 0.0 0.00 0.00 0.00 79 1016.3
20260510103504 10 182 0.0 0.0 0.00 0.00 0.00 79 1016.3
20260510103003 10 182 0.0 0.0 0.00 0.00 0.00 79 1016.3
20260510102503 10 182 0.0 0.0 0.00 0.00 0.00 79 1016.3
20260510102024 10 182 0.0 0.0 0.00 0.00 0.00 79 1016.3
20260510101503 10 182 0.0 0.0 0.00 0.00 0.00 78 1016.2
20260510101003 11 182 0.0 0.0 0.00 0.00 0.00 78 1016.1
20260510100503 11 182 0.0 0.0 0.00 0.00 0.00 78 1016.1
20260510100003 11 182 0.0 0.0 0.00 0.00 0.00 78 1016.0
20260510095503 11 182 0.0 0.0 0.00 0.00 0.00 79 1015.9
20260510095003 11 182 0.0 0.0 0.00 0.00 0.00 79 1015.9
20260510094504 11 182 0.0 0.0 0.00 0.00 0.00 79 1015.8
20260510094003 11 182 0.0 0.0 0.00 0.00 0.00 79 1015.9
20260510093504 11 182 0.0 0.0 0.00 0.00 0.00 79 1015.9
20260510093003 11 182 0.0 0.0 0.00 0.00 0.00 79 1015.9
20260510092504 11 182 0.0 0.0 0.00 0.00 0.00 79 1015.8
20260510092003 11 182 0.0 0.0 0.00 0.00 0.00 79 1015.7
20260510091503 11 182 0.0 0.0 0.00 0.00 0.00 80 1015.7
20260510091024 10 182 0.0 0.0 0.00 0.00 0.00 80 1015.5
20260510090503 10 182 0.0 0.0 0.00 0.00 0.00 80 1015.4
20260510090003 10 182 0.0 0.0 0.00 0.00 0.00 80 1015.4
20260510085503 10 182 0.0 0.0 0.00 0.00 0.00 80 1015.4
20260510085024 10 182 0.0 0.0 0.00 0.00 0.00 80 1015.4
20260510084502 10 182 0.0 0.0 0.00 0.00 0.00 80 1015.4
20260510084003 10 182 0.0 0.0 0.00 0.00 0.00 80 1015.3
20260510083503 10 182 0.0 0.0 0.00 0.00 0.00 80 1015.3
20260510083003 10 182 0.0 0.0 0.00 0.00 0.00 80 1015.3
20260510082503 10 182 0.0 0.0 0.00 0.00 0.00 80 1015.3
20260510082003 10 182 0.0 0.0 0.00 0.00 0.00 80 1015.2
20260510081503 11 182 0.0 0.0 0.00 0.00 0.00 80 1015.2
20260510081003 11 182 0.0 0.0 0.00 0.00 0.00 80 1015.1
20260510080503 11 182 0.0 0.0 0.00 0.00 0.00 80 1015.1
20260510080003 11 182 0.0 0.0 0.00 0.00 0.00 79 1015.1
20260510075502 11 182 0.0 0.0 0.00 0.00 0.00 79 1015.1
20260510075003 11 182 0.0 0.0 0.00 0.00 0.00 79 1015.1
20260510074525 11 195 0.0 0.0 0.00 0.00 0.00 79 1015.0
20260510074002 11 192 0.0 0.0 0.00 0.00 0.00 79 1015.0
20260510073503 11 200 0.0 0.0 0.00 0.00 0.00 79 1014.9
20260510073003 11 202 0.0 0.0 0.00 0.00 0.00 79 1014.8
20260510072503 11 202 0.0 0.0 0.00 0.00 0.00 79 1014.8
20260510072003 11 202 0.0 0.0 0.00 0.00 0.00 79 1014.8
20260510071503 11 202 0.0 0.0 0.00 0.00 0.00 79 1014.8
20260510071002 11 202 0.0 0.0 0.00 0.00 0.00 78 1014.8
20260510070503 11 205 0.0 0.0 0.00 0.00 0.00 78 1014.9
20260510070004 11 202 0.0 0.0 0.00 0.00 0.00 78 1014.9
20260510065503 11 202 0.0 0.0 0.00 0.00 0.00 78 1014.8
20260510065003 12 202 0.0 0.0 0.00 0.00 0.00 77 1014.9
20260510064503 12 223 0.0 0.0 0.00 0.00 0.00 77 1014.9
20260510064003 12 209 0.0 0.0 0.00 0.00 0.00 77 1014.9
20260510063503 12 210 0.0 0.0 0.00 0.00 0.00 77 1014.9
20260510063024 12 196 0.0 0.0 0.00 0.00 0.00 77 1015.0
20260510062503 12 202 0.0 0.0 0.00 0.00 0.00 77 1015.0
20260510062024 12 194 0.0 0.0 0.00 0.00 0.00 77 1014.9
20260510061503 12 200 0.0 0.0 0.00 0.00 0.00 77 1014.9
20260510061003 12 216 0.0 0.0 0.00 0.00 0.00 77 1014.9
20260510060503 12 199 0.0 0.0 0.00 0.00 0.00 77 1015.0
20260510060003 12 199 0.0 0.0 0.00 0.00 0.00 77 1015.0
20260510055502 12 200 0.0 0.0 0.00 0.00 0.00 77 1015.1
20260510055003 12 200 0.0 0.0 0.00 0.00 0.00 76 1015.1
20260510054503 12 200 0.0 0.0 0.00 0.00 0.00 76 1015.1
20260510054003 12 199 0.0 0.0 0.00 0.00 0.00 76 1015.1
20260510053532 12 199 0.0 0.0 0.00 0.00 0.00 75 1015.1
20260510052510 12 199 0.0 0.0 0.00 0.00 0.00 75 1015.1
20260510052011 12 211 0.0 0.0 0.00 0.00 0.00 75 1015.1
20260510051507 12 197 0.0 1.6 0.00 0.00 0.00 75 1015.0
20260510051008 12 195 0.0 1.6 0.00 0.00 0.00 75 1015.0
20260510050556 12 196 0.0 1.6 0.00 0.00 0.00 75 1015.0
20260510050006 12 196 0.0 1.6 0.00 0.00 0.00 75 1015.0
20260510045504 12 201 0.0 0.0 0.00 0.00 0.00 75 1015.1
20260510045008 12 202 0.0 0.0 0.00 0.00 0.00 75 1015.1
20260510044507 12 205 0.0 0.0 0.00 0.00 0.00 75 1015.1
20260510043509 12 208 0.0 0.0 0.00 0.00 0.00 74 1015.1
20260510043014 13 194 0.0 0.0 0.00 0.00 0.00 73 1015.1
20260510042009 13 195 0.0 0.0 0.00 0.00 0.00 73 1014.9
20260510041513 13 195 0.0 0.0 0.00 0.00 0.00 73 1014.9
20260510040004 13 192 0.0 0.0 0.00 0.00 0.00 73 1015.1
20260510035524 13 192 0.0 0.0 0.00 0.00 0.00 73 1015.1
20260510035003 13 192 0.0 0.0 0.00 0.00 0.00 73 1015.0
20260510034503 13 192 0.0 0.0 0.00 0.00 0.00 73 1015.0
20260510034003 13 193 0.0 0.0 0.00 0.00 0.00 72 1015.0
20260510033504 13 192 0.0 0.0 0.00 0.00 0.00 72 1015.0
20260510033002 13 192 0.0 0.0 0.00 0.00 0.00 72 1014.9
20260510032503 13 193 0.0 0.0 0.00 0.00 0.00 72 1014.9
20260510032003 13 194 0.0 0.0 0.00 0.00 0.00 72 1014.9
20260510031502 13 194 0.0 0.0 0.00 0.00 0.00 71 1014.8
20260510031003 13 192 0.0 0.0 0.00 0.00 0.00 71 1014.8
20260510030503 13 192 0.0 0.0 0.00 0.00 0.00 71 1014.7
20260510030002 13 194 0.0 0.0 0.00 0.00 0.00 71 1014.7
20260510025503 13 183 0.0 0.0 0.00 0.00 0.00 70 1014.7
20260510025003 13 196 0.0 0.0 0.00 0.00 0.00 70 1014.6
20260510024502 13 198 0.0 0.0 0.00 0.00 0.00 70 1014.6
20260510024003 13 198 0.0 0.0 0.00 0.00 0.00 70 1014.5
20260510023503 13 198 0.0 0.0 0.00 0.00 0.00 70 1014.5
20260510023025 13 199 0.0 0.0 0.00 0.00 0.00 70 1014.5
20260510022503 13 196 0.0 0.0 0.00 0.00 0.00 70 1014.5
20260510022008 14 248 0.0 0.0 0.00 0.00 0.00 69 1014.5
20260510021503 14 248 0.0 0.0 0.00 0.00 0.00 69 1014.4
20260510021003 14 248 0.0 0.0 0.00 0.00 0.00 70 1014.3
20260510020503 14 248 0.0 0.0 0.00 0.00 0.00 70 1014.3
20260510020003 14 248 0.0 0.0 0.00 0.00 0.00 69 1014.2
20260510015503 14 248 0.0 0.0 0.00 0.00 0.00 69 1014.2
20260510015003 14 248 0.0 0.0 0.00 0.00 0.00 69 1014.1
20260510014503 14 248 0.0 0.0 0.00 0.00 0.00 69 1014.0
20260510014003 14 252 0.0 0.0 0.00 0.00 0.00 68 1013.9
20260510013505 14 261 0.0 0.0 0.00 0.00 0.00 68 1013.8
20260510013003 15 261 0.0 0.0 0.00 0.00 0.00 67 1013.7
20260510012524 15 262 0.0 0.0 0.00 0.00 0.00 67 1013.6
20260510012003 15 262 0.0 0.0 0.00 0.00 0.00 66 1013.5
20260510011502 15 262 0.0 0.0 0.00 0.00 0.00 66 1013.4
20260510011003 15 262 0.0 0.0 0.00 0.00 0.00 64 1013.3
20260510010525 15 262 0.0 0.0 0.00 0.00 0.00 62 1013.1
20260510010004 15 262 0.0 0.0 0.00 0.00 0.00 63 1013.1
20260510005503 15 262 0.0 0.0 0.00 0.00 0.00 65 1013.1
20260510005003 15 262 0.0 0.0 0.00 0.00 0.00 64 1013.0
20260510004503 15 262 0.0 0.0 0.00 0.00 0.00 65 1012.9
20260510004024 15 262 0.0 0.0 0.00 0.00 0.00 65 1012.8
20260510003545 15 262 0.0 0.0 0.00 0.00 0.00 66 1012.8
20260510003004 15 262 0.0 0.0 0.00 0.00 0.00 65 1012.8
20260510002503 15 262 0.0 0.0 0.00 0.00 0.00 66 1012.7
20260510002003 16 262 0.0 0.0 0.00 0.00 0.00 65 1012.8
20260510001503 16 262 0.0 0.0 0.00 0.00 0.00 64 1012.8
20260510001003 16 262 0.0 0.0 0.00 0.00 0.00 64 1012.8
20260510000524 16 262 0.0 0.0 0.00 0.00 0.00 63 1012.7
20260510000004 16 262 0.0 0.0 0.00 0.00 0.00 62 1012.7
20260509235525 17 262 0.0 0.0 0.00 0.00 0.00 62 1012.6
20260509235003 17 262 0.0 0.0 0.00 0.00 0.00 63 1012.5
20260509234503 17 262 0.0 0.0 0.00 0.00 0.00 62 1012.5
20260509234002 17 262 0.0 0.0 0.00 0.00 0.00 62 1012.5
20260509233503 17 262 0.0 0.0 0.00 0.00 0.00 61 1012.4
20260509233046 17 261 0.0 0.0 0.00 0.00 0.00 62 1012.4
20260509232504 17 245 0.0 0.0 0.00 0.00 0.00 62 1012.2
20260509232005 17 315 0.0 0.0 0.00 0.00 0.00 63 1012.1
20260509231503 17 315 0.0 0.0 0.00 0.00 0.00 61 1012.2
20260509231003 17 315 0.0 0.0 0.00 0.00 0.00 61 1012.2
20260509230503 17 312 0.0 0.0 0.00 0.00 0.00 60 1012.1
20260509230024 17 34 0.0 0.0 0.00 0.00 0.00 59 1012.0
20260509225503 17 32 0.0 0.0 0.00 0.00 0.00 59 1012.0
20260509225005 18 34 0.0 0.0 0.00 0.00 0.00 60 1011.9
20260509224503 18 31 0.0 0.0 0.00 0.00 0.00 61 1011.9
20260509224003 18 29 0.0 0.0 0.00 0.00 0.00 59 1011.9
20260509223504 18 52 0.0 0.0 0.00 0.00 0.00 58 1011.9
20260509223003 18 49 0.0 0.0 0.00 0.00 0.00 57 1012.0
20260509222503 18 43 0.0 0.0 0.00 0.00 0.00 57 1012.1
20260509222003 18 276 0.0 0.0 0.00 0.00 0.00 57 1012.2
20260509221503 18 26 0.0 0.0 0.00 0.00 0.00 55 1012.3
20260509221024 18 26 0.0 0.0 0.00 0.00 0.00 55 1012.2
20260509220503 18 305 0.0 0.0 0.00 0.00 0.00 55 1012.1
20260509220003 18 46 0.0 0.0 0.00 0.00 0.00 55 1012.1
20260509215503 19 34 0.0 0.0 0.00 0.00 0.00 55 1012.0
20260509215002 19 350 0.0 0.0 0.00 0.00 0.00 55 1012.0
20260509214524 19 346 0.0 1.6 0.00 0.00 0.00 53 1012.0
20260509214003 19 335 0.0 1.6 0.00 0.00 0.00 53 1011.9
20260509213503 19 208 0.0 0.0 0.00 0.00 0.00 53 1011.9
20260509213045 19 64 0.0 3.2 0.00 0.00 0.00 52 1011.8
20260509212503 20 34 0.0 3.2 0.00 0.00 0.00 51 1011.8
20260509212003 20 95 0.0 1.6 0.00 0.00 0.00 52 1011.8
20260509211503 20 221 0.0 1.6 0.00 0.00 0.00 50 1011.6
20260509211003 20 24 0.0 0.0 0.00 0.00 0.00 51 1011.5
20260509210503 20 178 0.0 0.0 0.00 0.00 0.00 53 1011.5
20260509210003 20 30 0.0 4.8 0.00 0.00 0.00 52 1011.5
20260509205503 20 6 0.0 4.8 0.00 0.00 0.00 51 1011.5
20260509205003 20 53 0.0 3.2 0.00 0.00 0.00 49 1011.5
20260509204502 20 24 0.0 3.2 0.00 0.00 0.00 49 1011.6
20260509204003 20 12 0.0 8.0 0.00 0.00 0.00 50 1011.5
20260509203503 20 32 1.6 8.0 0.00 0.00 0.00 50 1011.5
20260509203003 20 83 0.0 8.0 0.00 0.00 0.00 49 1011.4